AFL1105 UHMM-UHWW

Flight info

Callsign AFL1105
Flight time N/A
Altitude 38000
Route BANOT5E BANOT L160 NA N222 FI/K0830F320 W307 TD B355 BG G714 DAGES DAGES2N
Aircraft B77W/H-SDE1E2E3FGHIJ2J3J4J5M1RWXY/LB1D1

Departure

Time 2026-04-17 09:36
Airport Sokol Airport (UHMM)

Arrival

Time N/A
Airport Vladivostok International Airport (UHWW)
Time Latitude Longitude Altitude Speed Heading
2026-04-17 09:08 59.91361 150.72138 587 ft 0 kts
2026-04-17 09:25 59.91357 150.72138 587 ft 3 kts
2026-04-17 09:26 59.91332 150.72127 587 ft 4 kts 33°
2026-04-17 09:26 59.91316 150.72090 587 ft 4 kts 73°
2026-04-17 09:26 59.91312 150.72038 587 ft 3 kts 92°
2026-04-17 09:26 59.91312 150.72032 587 ft 0 kts 92°
2026-04-17 09:30 59.91312 150.72033 587 ft 1 kts 92°
2026-04-17 09:31 59.91311 150.72098 587 ft 6 kts 92°
2026-04-17 09:31 59.91309 150.72180 587 ft 7 kts 92°
2026-04-17 09:31 59.91307 150.72301 587 ft 9 kts 92°
2026-04-17 09:31 59.91304 150.72426 587 ft 9 kts 92°
2026-04-17 09:32 59.91302 150.72554 587 ft 9 kts 92°
2026-04-17 09:32 59.91288 150.72671 587 ft 9 kts 137°
2026-04-17 09:32 59.91226 150.72685 587 ft 9 kts 182°
2026-04-17 09:32 59.91162 150.72680 588 ft 9 kts 182°
2026-04-17 09:33 59.91102 150.72702 589 ft 9 kts 141°
2026-04-17 09:33 59.91072 150.72880 589 ft 21 kts 97°
2026-04-17 09:33 59.91061 150.73239 589 ft 28 kts 93°
2026-04-17 09:33 59.91050 150.73632 587 ft 28 kts 93°
2026-04-17 09:34 59.91038 150.74024 586 ft 28 kts 94°
2026-04-17 09:34 59.91025 150.74416 588 ft 28 kts 95°
2026-04-17 09:34 59.91009 150.74797 590 ft 20 kts 94°
2026-04-17 09:34 59.91004 150.74937 590 ft 9 kts 94°
2026-04-17 09:35 59.91005 150.75059 589 ft 9 kts 66°
2026-04-17 09:35 59.91055 150.75048 590 ft 9 kts 293°
2026-04-17 09:35 59.91027 150.74936 590 ft 10 kts 249°
2026-04-17 09:35 59.91023 150.74821 590 ft 0 kts 272°
2026-04-17 09:36 59.91025 150.74747 590 ft 31 kts 273°
2026-04-17 09:36 59.91042 150.74121 586 ft 102 kts 273°
2026-04-17 09:36 59.91106 150.71226 805 ft 190 kts 272°
2026-04-17 09:36 59.91163 150.68670 2004 ft 186 kts 272°
2026-04-17 09:37 59.91203 150.66901 2576 ft 202 kts 275°
2026-04-17 09:37 59.91315 150.62764 3006 ft 246 kts 275°
2026-04-17 09:37 59.91415 150.59241 3769 ft 258 kts 275°
2026-04-17 09:37 59.91514 150.55640 4847 ft 262 kts 275°
2026-04-17 09:38 59.91613 150.52056 5924 ft 263 kts 274°
2026-04-17 09:38 59.91716 150.48380 7070 ft 262 kts 274°
2026-04-17 09:38 59.91640 150.44790 7874 ft 269 kts 258°
2026-04-17 09:38 59.91021 150.41217 8777 ft 276 kts 250°
2026-04-17 09:39 59.90526 150.38813 9470 ft 279 kts 250°
2026-04-17 09:39 59.89564 150.34009 10602 ft 287 kts 252°
2026-04-17 09:39 59.88865 150.30186 11190 ft 305 kts 252°
2026-04-17 09:40 59.87599 150.23018 11652 ft 353 kts 252°
2026-04-17 09:40 59.85794 150.12843 13610 ft 374 kts 252°
2026-04-17 09:40 59.84916 150.07932 14606 ft 380 kts 252°
2026-04-17 09:41 59.84023 150.02957 15619 ft 384 kts 252°
2026-04-17 09:41 59.83116 149.97933 16639 ft 389 kts 252°
2026-04-17 09:41 59.82192 149.92833 17609 ft 395 kts 252°
2026-04-17 09:41 59.81252 149.87665 18546 ft 401 kts 252°
2026-04-17 09:42 59.80293 149.82413 19381 ft 406 kts 252°
2026-04-17 09:42 59.79319 149.77092 20215 ft 411 kts 252°
2026-04-17 09:42 59.78336 149.71744 20995 ft 411 kts 253°
2026-04-17 09:42 59.77351 149.66398 21357 ft 415 kts 253°
2026-04-17 09:43 59.76352 149.60985 21609 ft 420 kts 253°
2026-04-17 09:43 59.75341 149.55517 21923 ft 423 kts 253°
2026-04-17 09:43 59.74667 149.51880 22189 ft 424 kts 253°
2026-04-17 09:43 59.73300 149.44530 22696 ft 426 kts 253°
2026-04-17 09:44 59.72267 149.38993 23054 ft 429 kts 253°
2026-04-17 09:44 59.71228 149.33434 23373 ft 431 kts 253°